Cheraw, SC

5:36 PM EDT on June 23, 2017 (GMT -0400)
Cheraw

Weather History for KCQW - January, 2013

Change the Weather History Date:

Thursday, January 17, 2013

  Actual Average (KFLO) Record (KFLO)
Temperature  
Mean Temperature 46 °F -  
Max Temperature 53 °F 55 °F 80 °F (2013)
Min Temperature 39 °F 33 °F 12 °F (1977)
Degree Days  
Heating Degree Days 19    
Moisture  
Dew Point 52 °F    
Average Humidity 99    
Maximum Humidity 100    
Minimum Humidity 93    
Precipitation  
Precipitation 1.16 in - - ()
Sea Level Pressure  
Sea Level Pressure 29.92 in    
Wind  
Wind Speed 9 mph (NE)    
Max Wind Speed 46 mph    
Max Gust Speed 66 mph    
Visibility 6 miles    
Events Rain    
Averages and records for this station are not official NWS values.
T = Trace of Precipitation, MM = Missing Value Source: NWS Daily Summary

Daily Weather History Graph

Daily Weather History Graph

Search for Another Location

Airport or City:

Trip Planner

Search our weather history database for the weather conditions in past years. The results will help you decide how hot, cold, wet, or windy it might be!

Date:

Astronomy

Jan. 17, 2013 Rise Set
Actual Time 7:26 AM EST 5:34 PM EST
Civil Twilight 6:58 AM EST 6:01 PM EST
Nautical Twilight 6:27 AM EST 6:32 PM EST
Astronomical Twilight 5:57 AM EST 7:02 PM EST
Moon 10:49 AM EST (1/17) No Moon Set
Length of Visible Light 11h 02m
Length of Day
10h 08m
Waxing Crescent, 37% of the Moon is Illuminated
Jan 17
Waxing Crescent
Jan 18
First Quarter
Jan 26
Full
Feb 3
Last Quarter
Feb 10
New

Hourly Weather History & Observations

Time (EST) Temp. Windchill Dew Point Humidity Pressure Visibility Wind Dir Wind Speed Gust Speed Precip Events Conditions
12:15 AM 53.6 °F - 53.6 °F 100% 29.97 in 10.0 mi Calm Calm - N/A   Mostly Cloudy
12:35 AM 53.6 °F - 53.6 °F 100% 29.97 in 9.0 mi Calm Calm - N/A   Mostly Cloudy
12:55 AM 53.6 °F - 53.6 °F 100% 29.97 in 10.0 mi Calm Calm - N/A   Overcast
1:15 AM 53.6 °F - 53.6 °F 100% 29.97 in 9.0 mi Calm Calm - N/A   Overcast
1:55 AM 53.6 °F - 53.6 °F 100% 29.97 in 10.0 mi Calm Calm - N/A   Overcast
2:15 AM 53.6 °F - 53.6 °F 100% 29.97 in 10.0 mi Calm Calm - N/A   Overcast
2:35 AM 53.6 °F - 53.6 °F 100% 29.96 in 10.0 mi Calm Calm - N/A   Overcast
2:55 AM 53.6 °F - 53.6 °F 100% 29.96 in 9.0 mi Calm Calm - N/A   Overcast
3:15 AM 53.6 °F - 53.6 °F 100% 29.96 in 10.0 mi Calm Calm - N/A   Overcast
3:35 AM 53.6 °F - 53.6 °F 100% 29.95 in 8.0 mi Calm Calm - N/A   Overcast
3:55 AM 53.6 °F - 53.6 °F 100% 29.95 in 4.0 mi Calm Calm - N/A   Overcast
4:15 AM 53.6 °F - 53.6 °F 100% 29.94 in 7.0 mi Calm Calm - N/A   Overcast
4:35 AM 53.6 °F - 53.6 °F 100% 29.94 in 8.0 mi Calm Calm - N/A   Overcast
4:55 AM 53.6 °F - 53.6 °F 100% 29.94 in 7.0 mi Calm Calm - N/A   Light Drizzle
5:15 AM 53.6 °F - 53.6 °F 100% 29.94 in 7.0 mi Calm Calm - N/A   Overcast
5:35 AM 53.6 °F - 53.6 °F 100% 29.94 in 8.0 mi Calm Calm - N/A   Overcast
5:55 AM 53.6 °F - 53.6 °F 100% 29.94 in 10.0 mi ENE 5.8 mph - N/A   Overcast
6:15 AM 53.6 °F - 53.6 °F 100% 29.94 in 9.0 mi Calm Calm - N/A   Overcast
6:35 AM 53.6 °F - 53.6 °F 100% 29.95 in 7.0 mi Calm Calm - N/A   Overcast
6:55 AM 53.6 °F - 53.6 °F 100% 29.95 in 7.0 mi Calm Calm - N/A   Overcast
7:15 AM 53.6 °F - 53.6 °F 100% 29.95 in 6.0 mi NE 8.1 mph - N/A   Overcast
7:35 AM 53.6 °F - 53.6 °F 100% 29.96 in 4.0 mi NNE 6.9 mph - N/A   Overcast
7:55 AM 53.6 °F - 53.6 °F 100% 29.96 in 5.0 mi NNE 17.3 mph - N/A   Overcast
8:15 AM 53.6 °F - 53.6 °F 100% 29.96 in 5.0 mi NNE 13.8 mph 17.3 mph N/A   Overcast
8:35 AM 53.6 °F - 53.6 °F 100% 29.96 in 5.0 mi NE 13.8 mph - N/A   Overcast
8:55 AM 53.6 °F - 53.6 °F 100% 29.97 in 4.0 mi NNE 13.8 mph - N/A   Overcast
9:15 AM 53.6 °F - 53.6 °F 100% 29.97 in 3.0 mi NE 18.4 mph 24.2 mph N/A   Overcast
9:55 AM 53.6 °F - 53.6 °F 100% 29.98 in 7.0 mi NE 19.6 mph 27.6 mph N/A   Overcast
10:15 AM 53.6 °F - 53.6 °F 100% 29.97 in 9.0 mi ENE 15.0 mph 31.1 mph N/A   Overcast
10:35 AM 53.6 °F - 53.6 °F 100% 29.96 in 10.0 mi ENE 21.9 mph 33.4 mph N/A   Overcast
10:55 AM 53.6 °F - 53.6 °F 100% 29.95 in 8.0 mi NE 19.6 mph 31.1 mph N/A Rain Light Rain
11:15 AM 53.6 °F - 53.6 °F 100% 29.94 in 10.0 mi ENE 15.0 mph 27.6 mph N/A   Overcast
11:35 AM 53.6 °F - 53.6 °F 100% 29.94 in 10.0 mi NE 12.7 mph 24.2 mph N/A   Overcast
11:55 AM 53.6 °F - 53.6 °F 100% 29.91 in 5.0 mi NE 21.9 mph 29.9 mph N/A   Overcast
12:15 PM 53.6 °F - 53.6 °F 100% 29.89 in 4.0 mi ENE 17.3 mph 29.9 mph N/A   Overcast
12:35 PM 53.6 °F - 53.6 °F 100% 29.87 in 2.5 mi ENE 21.9 mph 29.9 mph N/A   Overcast
12:55 PM 53.6 °F - 53.6 °F 100% 29.86 in 2.0 mi ENE 16.1 mph 27.6 mph N/A   Overcast
1:15 PM 53.6 °F - 53.6 °F 100% 29.84 in 2.5 mi NE 16.1 mph 28.8 mph N/A   Overcast
1:35 PM 53.6 °F - 53.6 °F 100% 29.83 in 3.0 mi NE 19.6 mph 23.0 mph N/A   Overcast
1:55 PM 53.6 °F - 53.6 °F 100% 29.82 in 3.0 mi ENE 23.0 mph 29.9 mph N/A   Overcast
2:15 PM 53.6 °F - 53.6 °F 100% 29.79 in 3.0 mi ENE 23.0 mph 33.4 mph N/A   Overcast
2:35 PM 53.6 °F - 53.6 °F 100% 29.78 in 4.0 mi ENE 23.0 mph 33.4 mph N/A   Overcast
2:55 PM 53.6 °F - 53.6 °F 100% 29.78 in 4.0 mi NE 23.0 mph 32.2 mph N/A   Overcast
3:15 PM 53.6 °F - 53.6 °F 100% 29.78 in 4.0 mi NE 19.6 mph 32.2 mph N/A   Overcast
3:35 PM 53.6 °F - 53.6 °F 100% 29.78 in 3.0 mi ENE 20.7 mph 34.5 mph N/A   Overcast
3:55 PM 53.6 °F - 53.6 °F 100% 29.75 in 3.0 mi ENE 29.9 mph 39.1 mph N/A   Overcast
4:15 PM 53.6 °F - 53.6 °F 100% 29.77 in 3.0 mi NE 26.5 mph 36.8 mph N/A   Overcast
4:35 PM 53.6 °F - 53.6 °F 100% 29.76 in 2.5 mi ENE 26.5 mph 43.7 mph N/A Rain Light Rain
4:55 PM 53.6 °F - 53.6 °F 100% 29.75 in 2.5 mi NE 28.8 mph 38.0 mph N/A Rain Light Rain
5:35 PM 51.8 °F - 51.8 °F 100% 29.77 in 1.8 mi NW 19.6 mph 46.0 mph 0.10 in Rain Heavy Rain
5:55 PM 51.8 °F - 51.8 °F 100% 29.82 in 3.0 mi West 13.8 mph 19.6 mph 0.39 in Rain Rain
6:15 PM 51.8 °F - 51.8 °F 100% 29.85 in 2.5 mi WNW 19.6 mph 31.1 mph 0.09 in Rain Heavy Rain
6:35 PM 50.0 °F - 50.0 °F 100% 29.80 in 4.0 mi North 31.1 mph 46.0 mph 0.21 in Rain Rain
6:55 PM 48.2 °F - 48.2 °F 100% 29.80 in 3.0 mi North 24.2 mph 42.6 mph 0.35 in Rain Heavy Rain
7:35 PM 48.2 °F - 48.2 °F 100% 29.85 in 10.0 mi NW 19.6 mph 44.9 mph 0.03 in   Overcast
7:55 PM 46.4 °F 35.8 °F 46.4 °F 100% 29.87 in 3.0 mi NNE 40.3 mph 50.6 mph 0.07 in Rain Rain
8:15 PM 46.4 °F 39.2 °F 44.6 °F 93% 29.92 in 2.5 mi North 18.4 mph 51.8 mph 0.02 in Rain Rain
8:35 PM 44.6 °F 36.1 °F 44.6 °F 100% 29.94 in 1.8 mi North 21.9 mph 39.1 mph 0.14 in Rain Rain
8:55 PM 44.6 °F 32.7 °F 42.8 °F 93% 29.96 in 10.0 mi NE 46.0 mph 65.6 mph 0.16 in   Overcast
9:15 PM 44.6 °F 35.7 °F 42.8 °F 93% 30.00 in 5.0 mi NE 24.2 mph 56.4 mph N/A Rain Light Rain
9:35 PM 42.8 °F 34.3 °F 42.8 °F 100% 30.03 in 3.0 mi NNE 19.6 mph 29.9 mph 0.04 in Rain Rain
9:55 PM 42.8 °F 32.3 °F 41.0 °F 93% 30.05 in 4.0 mi North 29.9 mph 51.8 mph 0.09 in Rain Rain
10:15 PM 41.0 °F 32.2 °F 39.2 °F 93% 30.08 in 3.0 mi North 18.4 mph 36.8 mph 0.04 in Rain Heavy Rain
10:35 PM 39.2 °F 27.6 °F 39.2 °F 100% 30.11 in 5.0 mi North 28.8 mph 38.0 mph 0.08 in Rain Light Rain
10:55 PM 39.2 °F 28.3 °F 37.4 °F 93% 30.12 in 8.0 mi North 25.3 mph 41.4 mph 0.10 in Rain Light Rain